Location: Piotrkow Trybunalski
(51.4000°N, 19.6830°E)
Time: 12:38:31
(UTC+02:00)

A-11 Canister half - Pass Details

Date: 03 February 2023
Orbit: 1526 x 1682 km, 47.3° (Epoch: 26 March)

Event Time Altitude Azimuth Distance (km) Brightness Sun altitude
Rises 10:00:57 0° 278° (W) 4,693 11.2 17.6°
Reaches altitude 10° 10:04:01 10° 275° (W) 3,720 10.8 17.9°
Maximum altitude 10:13:10 59° 199° (SSW) 1,774 10.0 18.5°
Drops below altitude 10° 10:22:34 10° 124° (SE) 3,822 12.2 19.1°
Sets 10:25:46 0° 121° (ESE) 4,828 12.5 19.3°
